Regional Weather Roundup
Issued by NWS

Home | Current Version | Previous Version | Graphics & Text | Print | Product List | Glossary On
Versions: 1 2 3 4 5 6 7 8 9 10 11 12 13 14 15 16 17 18 19 20 21 22 23 24 25 26 27 28 29 30 31 32 33 34 35 36 37 38 39 40 41 42 43 44 45 46 47 48 49 50
000
ASUS43 KMKX 290307
RWRWI

WISCONSIN REGIONAL WEATHER ROUNDUP
NATIONAL WEATHER SERVICE MILWAUKEE/SULLIVAN WI
1000 PM CDT THU MAY 28 2015

NOTE: "FAIR" INDICATES FEW OR NO CLOUDS BELOW 12,000 FEET WITH NO
SIGNIFICANT WEATHER AND/OR OBSTRUCTIONS TO VISIBILITY.

WIZ001-002-006>008-014>016-023>028-290400-
NORTHWEST WISCONSIN

CITY           SKY/WX    TMP DP  RH WIND       PRES   REMARKS
SUPERIOR ARPT  CLOUDY    40  40  99 NE6       29.98R
ASHLAND        CLEAR     46  46 100 CALM      29.97R
HAYWARD        PTCLDY    70  54  56 SE5       29.97R
SIREN          MOCLDY    71  54  53 S6        29.94R
CUMBERLAND     MOCLDY    66  54  63 S8        29.96S
RICE LAKE      MOCLDY    69  56  62 SE6       29.98R
CHETEK         MOCLDY    70  57  64 SE6       29.96S
LADYSMITH      MOCLDY    69  56  62 SE5       30.00R
EAU CLAIRE     NOT AVBL
MENOMONIE      MOCLDY    70  53  54 SE6       29.96S
NEW RICHMOND   CLOUDY    71  53  53 S7        29.94S
OSCEOLA        MOCLDY    71  55  55 SE8       29.95R
$$

WIZ003>005-009-010-017-018-290400-
NORTH CENTRAL WISCONSIN

CITY           SKY/WX    TMP DP  RH WIND       PRES   REMARKS
MANITOWISH WTR PTCLDY    69  55  59 S8        30.01R
ARBOR VITAE    PTCLDY    72  58  61 S5        30.02R
WOODRUFF       PTCLDY    72  58  61 S5        30.02R
RHINELANDER    PTCLDY    68  55  63 S5        30.04R
EAGLE RIVER    PTCLDY    69  52  55 S3        30.03R
LAND O LAKES   PTCLDY    70  52  51 S3        30.03R
PHILLIPS       MOCLDY    67  55  65 S6        30.00R
TOMAHAWK       PTCLDY    64  56  75 CALM      30.03R
MEDFORD        PTCLDY    65  56  71 S7        30.02R
MERRILL        CLEAR     70  55  60 S3        30.04R
$$

WIZ029-030-035-036-043>047-290400-
CENTRAL WISCONSIN

CITY           SKY/WX    TMP DP  RH WIND       PRES   REMARKS
WAUSAU         PTCLDY    68  55  63 S7        30.02R
MOSINEE        CLEAR     64  55  72 S7        30.04S
MARSHFIELD     PTCLDY    68  53  58 SE5       30.02R
STEVENS POINT  PTCLDY    68  53  57 S5        30.03S
WAUPACA        CLEAR     67  56  67 SE5       30.04R
WAUTOMA        NOT AVBL
WISC RAPIDS    PTCLDY    68  53  58 SE5       30.03S
CAMP DOUGLAS   NOT AVBL
$$

WIZ011>013-019>022-031-037>040-048>050-290400-
NORTHEAST WISCONSIN

CITY           SKY/WX    TMP DP  RH WIND       PRES   REMARKS
ANTIGO         CLEAR     62  57  83 S8        30.05S
SHAWANO        CLEAR     70  60  71 SE6       30.05R
OCONTO         CLEAR     66  57  72 S7        30.05S
STURGEON BAY   CLEAR     63  52  67 S10       30.10S
GREEN BAY      CLEAR     69  53  56 S10       30.06S
MANITOWOC      NOT AVBL
APPLETON       PTCLDY    70  54  56 SE9       30.07R
CLINTONVILLE   CLEAR     68  55  64 S5        30.04S
OSHKOSH        CLEAR     64  55  72 S7        30.05S
$$

WIZ032>034-041-042-053>061-290400-
SOUTHWEST WISCONSIN

CITY           SKY/WX    TMP DP  RH WIND       PRES   REMARKS
LA CROSSE      PTCLDY    74  54  49 S7        29.97R
SPARTA         CLEAR     64  55  73 E3        30.01S
VIROQUA        PTCLDY    68  52  56 SE8       30.02R
BOSCOBEL       PTCLDY    63  58  83 CALM      30.00S
PRAIRIE DU CHI PTCLDY    68  54  60 E6        29.98S
PLATTEVILLE    MOCLDY    69  56  62 SE6       30.02F
$$

WIZ056-057-062-063-064-067-068-290400-
SOUTH CENTRAL WISCONSIN

CITY           SKY/WX    TMP DP  RH WIND       PRES   REMARKS
REEDSBURG      CLEAR     69  55  62 CALM      30.02R
BARABOO/DELLS  CLEAR     67  53  61 S5        30.03S
LONE ROCK      NOT AVBL
MINERAL POINT  PTCLDY    70  52  52 SE6       30.03S
MADISON        MOCLDY    72  55  55 SE10      30.04R
MIDDLETON      PTCLDY    73  52  47 SE5       30.04S
WATERTOWN      CLEAR    N/A N/A N/A SE6       30.06S
MONROE         MOCLDY    70  54  56 SE10      30.04S
JANESVILLE     MOCLDY    70  55  60 SE10      30.05S
$$

WIZ051-052-058>065-066-070>072-290400-
SOUTHEAST WISCONSIN

CITY           SKY/WX    TMP DP  RH WIND       PRES   REMARKS
MILWAUKEE      MOCLDY    65  54  67 SE9       30.08F
WAUKESHA       CLEAR     66  52  59 SE7       30.09F
MILWAUKEE/TIMM CLEAR     68  50  52 SE5       30.09S
RACINE         CLEAR     63  53  70 SE5       30.11S
BURLINGTON     PTCLDY    65  53  66 SE9       30.09R
KENOSHA        PTCLDY    64  54  69 SE7       30.09S
FOND DU LAC    CLEAR     66  54  65 SE8       30.06R
SHEBOYGAN      CLEAR     62  54  74 S5        30.09R
WEST BEND      CLEAR     66  52  59 SE5       30.08S
JUNEAU         CLEAR     68  53  58 SE8       30.08R
$$

LSZ147-162-290400-
LAKE SUPERIOR

STATION/POSITION TIME  TEMP    WIND        PRES    WAVE
                       AIR SEA DIR/SP/G            HT/PER
                 (UTC) (F)     (DEG/KT/KT) (MB)    (FT/S)
W MID LAKE BUOY  0150   38 37   40/  8/ 10   N/A     2/ 5
DEVILS ISLAND    0200   40      40/  6/  8   N/A
PORT WING        0200   40      30/  9/ 11   N/A
SAXON HARBOR     0200   45        CALM       N/A
$$

LMZ867-665-643>646-290400-
LAKE MICHIGAN

STATION/POSITION TIME  TEMP    WIND        PRES    WAVE
                       AIR SEA DIR/SP/G            HT/PER
                 (UTC) (F)     (DEG/KT/KT) (MB)    (FT/S)
CHAMBERS ISLAND  0200   67     150/  7/ 13   N/A
N MID LAKE BUOY  0150   42 36  180/  8/ 10   N/A     1
NORTHPORT PIER   0200   59     160/  7/ 11   N/A
SISTER BAY       0218   60     160/ 10/ 13   N/A
ALGOMA LAKESHORE 0208          210/  8/  9   N/A
KEWAUNEE LAKESHO 0200   53     170/  8/ 10   N/A
SHEBOYGAN LAKESH 0200   57     180/ 12/ 13   N/A
PORT WASHINGTON  0200   58     180/  3/  5   N/A
ATWATER BUOY     0200   54     170/  6/  6   N/A
MILWAUKEE LAKESH 0200   59     240/  1/  2   N/A
S MID LAKE BUOY  0150   46 38   90/  8/ 10   N/A     0
KENOSHA   LAKESH 0200   60     150/  3/  3   N/A
$$

TC  - TEMPERATURE IN CELSIUS
VSB - VISIBILITY IN STATUTE MILES
WCI - WIND CHILL INDEX
HX  - HEAT INDEX




USA.gov is the U.S. government's official web portal to all federal, state and local government web resources and services.